Location: Heiligenberg
(48.5381°N, 7.3897°E)
Time: 23:33:12
(UTC+00:00)

Resurs 1-4 Rocket - Pass Details

Date: 26 May 2022
Orbit: 800 x 813 km, 98.7° (Epoch: 02 July)

Event Time Altitude Azimuth Distance (km) Brightness Sun altitude
Rises 01:20:54 0° 14° (NNE) 3,323 6.9 -15.9°
Reaches altitude 10° 01:23:14 10° 14° (NNE) 2,389 5.8 -15.7°
Maximum altitude 01:28:32 85° 288° (WNW) 812 2.1 -15.3°
Enters shadow 01:31:57 23° 199° (SSW) 1,669 3.1 -15.0°
